Weather in Belgorodskoye

Russia / Jewish Autonomous Oblast     48°35′44″N   133°43′33″E
temp.,
°C
wind,
m/s
gust,
m/s
humid.,
%
clouds,
%
prec.,
mm/h
press.,
hPa
HPBL,
m
18 april, sun
sun1801:00+3nne11865 0.0 101210
04:00+1ese11895 0.0 101210
07:00+2nnw118852 0.0 101218
10:00+7nne23685 0.0 1012556
13:00+11n345470 0.0 10091358
16:00+13ne35455 0.0 10071404
19:00+13ene344490 0.0 1005369
22:00+9e346043 0.0 100552
19 april, mon
mon1901:00+7nne33665 0.0 100542
04:00+6nnw22718 0.0 100415
07:00+5nw227837 0.0 100336
10:00+10nw22575 0.0 1002586
13:00+14wnw56375 0.0 10001704
16:00+18wnw5102670 0.0 9972822
19:00+15wnw10124085 0.0 9971159
22:00+6nw1117390 0.0 10011257
20 april, tue
tue2001:00+1nw1421330 0.0 10041384
04:000wnw1018410 0.0 10051552
07:00−1wnw11193525 0.0 10062079
10:00+1nw131731100 0.0 10052199
13:00+5nw1214294 0.0 10061873
16:00+9nw10132591 0.0 10072199
19:00+8nw913285 0.0 10092095
22:00+6nw815310 0.0 1012669
21 april, wed
wed2101:00+4wnw613310 0.0 1014318
04:00+2w58350 0.0 1015119
07:00+2wnw48360 0.0 1016133
10:00+10nw47230 0.0 1017523
13:00+15nw46200 0.0 10171196
16:00+19wnw36190 0.0 10161673
19:00+15e79300 0.0 1018339
22:00+10e511390 0.0 1021279
22 april, thu
thu2201:00+8e512520 0.0 1024343
04:00+5e410590 0.0 1025213
07:00+5ene310640 0.0 1026286
10:00+10ene68460 0.0 1027634
13:00+15ene56340 0.0 10271081
16:00+17ene55300 0.0 10251157
19:00+16e353417 0.0 1025284
22:00+11e35500 0.0 102668